Погода в Амдерме

Погода в Амдерме : погода сейчас, прогноз погоды и архив. Всё, что Вы хотите узнать о погоде в Амдерме!

Хотите узнать прогноз погоды в Амдерме? Тогда Вам сюда: Погода в Амдерме

Поиск расширенной информации на нашем сайте:

Другие новости

Новости СМИ2

Главная страница сайта

Новости сайта

03.07.2017

Напоминаем, что на нашем специализированном сайте Метеоцентр.Азия вы можете получить высокодетализированные автоматические прогнозы погоды по пунктам России, СНГ и мира в авиационном формате (включающие направление и скорость ветра, видимость, явления погоды, количество и форму облачности, нижнюю и верхнюю границу облачности).


Погода в Амдерме - сегодня

Время (UTC), дата Ветер
(°,м/с) 
Видим.   Явления Облачность Т
(°С)
Тd
(°С)
f(%) Тe
(°С)
Pmin
(гПа)
dP
(гПа)
Po
(мм)
O2
(г/м3)
Тmin Tmax R s Состояние
почвы
15 19.05.18 160 (Ю) 12-14{15}  10 км    10/0 средняя 
[Ac und]
+2.4 -0.9 79 -2  1002.4  -3.5  747  298    +2.5       
18 19.05.18 190 (Ю) 7{14}  10 км    10/4 300 м средняя 
[Sc|Ac und]
+1.1 -0.6 88 -3  1000.2  -2.2  745  299           
03 20.05.18 350 (С) 8-11{11}  4000 м  дымка  10/10 300 м 
[St]
-3.5 -4.3 94 -8  1003.7  2.5  748  306  -3.5    0.7  12  мокрый или
старый снег
50-90% 
06 20.05.18 340 (С) 10 км    10/10 600 м 
[Sc]
-3.8 -5.6 87 -8  1006.3  2.6  750  307           
12 20.05.18 340 (С) 5{10}  10 км    10/10 600 м 
[Sc]
-3.9 -5.1 91 -8  1010.9  1.9  753  308           
18 20.05.18 220 (ЮЗ) 10 км    3/3 600 м средняя 
[Sc|Ac trans]
-6 -6.8 94 -9  1013.4  0.8  755  312           
21 20.05.18 180 (Ю) 4000 м  дымка  10/10 300 м 
[St]
-4.8 -5.4 96 -10  1012.6  -0.8  754  310           
00 21.05.18 200 (Ю) 10-13{13}  4000 м  дымка  10/10 300 м 
[St]
-3.4 -4.2 94 -9  1011.7  -0.8  754  308           
03 21.05.18 200 (Ю) 11-13{14}  4000 м  дымка  10/10 300 м 
[St]
-1.8 -2.3 96 -7  1010.6  -1  753  306  -6.7      11  мокрый или
старый снег
50-90% 
12 21.05.18 210 (ЮЗ) 17-21{22}  4000 м  слаб. ливневой дождь  10/10 600 м кучево-дожд. 
[Cb cap]
+0.7 +0.4 98 -6  1002.6  -4.6  747  300           
15 21.05.18 230 (ЮЗ) 11-16{21}  4000 м  слаб. ливневой дождь  10/10 600 м кучево-дожд. 
[Cb cap]
+0.8 +0.5 98 -4  999.8  -2.7  745  299    +0.9     
03 22.05.18 300 (СЗ) 10-16{18}  10 км    9/9 300 м 
[Sc]
-0.6 -2.4 88 -6  996.9  3.6  743  300  -0.8    0.0  11  мокрый или
старый снег
50-90% 
15 22.05.18 300 (СЗ) 8-12{15}  10 км    9/9 300 м 
[Cu Sc]
-0.7 -2.6 87 -5  1013.9  2.8  755  305    +0.4       
18 22.05.18 280 (З) 4{12}  10 км    4/3 600 м средняя 
[Sc|Ac trans]
-1.7 -3.8 86 -4  1015.5  1.6  757  307           
21 22.05.18 260 (З) 10 км    3/0 средняя 
[Ac trans]
-3.7 -4.8 92 -6  1016.4  0.7  757  310           
00 23.05.18 210 (ЮЗ) 4000 м  дымка  10/10 600 м 
[Sc]
-1.5 -2.3 94 -4  1016.3  0.1  757  307           
03 23.05.18 230 (ЮЗ) 4000 м  в посл. час туман  9/9 300 м 
[Sc]
+0.4 -0.2 96 -3  1014.3  -2  756  304  -3.9      мокрый или
старый снег
50-90% 
15 23.05.18 260 (З) 4{12}  10 км  {ливн. осадки}  10/10 300 м 
[Sc]
+0.8 +0.4 97 -2  997  -4.1  743  298    +1.1     
18 23.05.18 340 (С) 0500 м  ливневой снег{туман}  10/10 300 м кучево-дожд. 
[Cb cap]
-0.2 -0.8 96 -4  996.6  -0.4  743  299           
03 24.05.18 350 (С) 7-10{13}  10 км  {ливн. осадки}  9/9 600 м 
[Sc]
-6.4 -7.6 91 -12  1007.1  3.9  750  310  -6.4    14  неравномерный
мокрый или
старый снег
100% 
09 24.05.18 340 (С) 7{10}  10 км    10/10 600 м 
[Sc]
-6.5 -9.3 80 -12  1011.7  2.3  754  312           
12 24.05.18 340 (С) 10 км  слаб. ливневой снег  10/10 600 м кучево-дожд. 
[Cb cap]
-5.9 -7.4 89 -10  1013.5  1.7  755  312           
18 24.05.18 320 (СЗ) 10 км  слаб. ливневой снег  10/10 600 м кучево-дожд. 
[Cb cap]
-5.6 -7 90 -9  1014.2  -0.1  755  312           
03 25.05.18 310 (СЗ) 10 км    3/3 600 м 
[Sc]
-6.5 -8.5 86 -9  1016.3  757  313  -7.6    0.0  14  неравномерный
мокрый или
старый снег
100% 
06 25.05.18 320 (СЗ) 10 км    1/1 600 м 
[Sc]
-5.6 -8.2 82 -8  1017.1  0.8  758  313           
Время (UTC), дата Ветер
(°,м/с) 
Видим.   Явления Облачность Т
(°С)
Тd
(°С)
f(%) Тe
(°С)
Pmin
(гПа)
dP
(гПа)
Po
(мм)
O2
(г/м3)
Тmin Tmax R s Состояние
почвы

Для получения пояснительной информации подведите курсор к названию столбца.

ПОГОДА в Амдерме - архив

Всё, что Вы хотите узнать о погоде в Амдерме - удобно и подробно!

Выберите нужную дату (начиная с 1 января 2015* года) и нажмите кнопку "Найти".
Будут отображены архивные сводки погоды по пункту Амдерма, начиная с указанной даты.


Отображать данные в формате CSV (для использования в таблицах Excel)


Внимание! Наш архив погоды предназначен исключительно для личного некоммерческого использования в познавательных целях. Если Вам необходимы официальные справки о состоянии погоды (для производственных, юридических, коммерческих и т.п. целей), обращайтесь в органы Росгидромета.

*Примечание: данная дата относится к архиву по метеостанциям СССР (Россия, СНГ, Балтия).
Архив по метеостанциям Зарубежной Европы и Азии (кроме Китая) хранится 10 дней, по другим регионам земного шара (Китай, Африка, Америка, Австралия, Океания) - 1 день.

Амдерма - район местоположения метеостанции


Название, широта, долгота, высота метеостанции:
Амдерма 69.8°ш. 61.7°д. 49 м над ур. моря [Российская Федерация]

Дополнительная информация

В oтличие oт бoльшинства пoгoдных сайтoв мы публикуем пoдрoбную метеoинфoрмацию в детальнoм прoфессиoнальнoм фoрмате.

Характеристики температуры и влажнoсти вoздуха измеряются на высoте 2 м в тени вдали oт зданий и деревьев.
Скoрoсть ветра измеряется на высoте 10 м (на урoвне рoста челoвека скoрoсть ветра ниже в 1.5-2 раза). Если метеoстанция нахoдится в гoрoде или в лесу, тo скoрoсть ветра занижена на 2-4 м/с пo сравнению с oткрытым местoм. Скoрoсть ветра над акватoриями крупных рек и oзёр, а также на вершинах хoлмoв на 2-5 м/с выше, чем в oбычных услoвиях.
Атмoсфернoе давление в разных тoчках местнoсти мoжет значительнo oтличаться oт давления на метеoстанции, в зависимoсти oт услoвий рельефа (при пoдъёме на 10 м давление пoнижается примернo на 1 мм рт.ст.).